User: anonymous   Login
Location: Great Northern Moose Lodge
(44.6765°N, 71.1811°W)
Time: 14:11:24
(UTC-05:00)
Language:

Terra - Orbit

View from above orbital plane
View from above orbital plane
View from above satellite
View from above satellite

Ground track
Ground track

The orbit data is extracted from the following two-line orbital elements,

1 25994U 99068A   17050.23050562 -.00000787  00000-0 -16463-3 0  9994
2 25994  98.2008 126.9041 0001160  73.5903 286.5426 14.57109515913493
Epoch (UTC): 19 February 2017 05:31:55
Eccentricity: 0.0001160
inclination: 98.2008°
perigee height: 702 km
apogee height: 703 km
right ascension of ascending node: 126.9041°
argument of perigee: 73.5903°
revolutions per day: 14.57109515
mean anomaly at epoch: 286.5426°
orbit number at epoch: 91349

The dashed part of the orbit path shows where the satellite is in the earth's shadow,  

DLR